Weather History for Cape Lisburne, AK

Change the Weather History Date:

Monday, May 20, 2013

  Actual Average Record
Temperature  
Mean Temperature 28 °F -  
Max Temperature 35 °F 32 °F 46 °F (2002)
Min Temperature 20 °F 24 °F 15 °F (2000)
Degree Days  
Heating Degree Days 38    
Moisture  
Dew Point 28 °F    
Average Humidity 93    
Maximum Humidity 100    
Minimum Humidity 87    
Precipitation  
Precipitation 0.14 in - - ()
Sea Level Pressure  
Sea Level Pressure 30.17 in    
Wind  
Wind Speed 15 mph (South)    
Max Wind Speed 38 mph    
Max Gust Speed 45 mph    
Visibility 4 miles    
Events Rain , Snow    
Averages and records for this station are not official NWS values.
T = Trace of Precipitation, MM = Missing Value Source: NWS Daily Summary

Daily Weather History Graph

Daily Weather History Graph

Search for Another Location

Airport:

Trip Planner

Search our weather history database for the weather conditions in past years. The results will help you decide how hot, cold, wet, or windy it might be!

Date:

Astronomy

May. 20, 2013 Rise Set
Actual Time 3:35 AM AKDT 2:50 AM AKDT
Civil Twilight Sun does not rise Sun does not rise
Nautical Twilight Sun does not rise Sun does not rise
Astronomical Twilight Sun does not rise Sun does not rise
Moon 6:19 PM AKDT (5/20) 4:26 AM AKDT (5/20)
Length of Visible Light 24h 00m
Length of Day
23h 15m
Waxing Gibbous, 76% of the Moon is Illuminated
May 20
Waxing Gibbous
May 24
Full
May 31
Last Quarter
Jun 8
New
Jun 16
First Quarter

Hourly Weather History & Observations

Time (AKDT) Temp. Windchill Dew Point Humidity Pressure Visibility Wind Dir Wind Speed Gust Speed Precip Events Conditions
12:10 AM 21.2 °F 11.7 °F 21.2 °F 100% 30.21 in 0.8 mi East 8.1 mph - N/A Snow Light Snow
12:35 AM 21.2 °F 12.6 °F 19.4 °F 93% 30.22 in 1.0 mi ESE 6.9 mph - N/A Snow Light Snow
12:55 AM 20.7 °F 14.2 °F 20.5 °F 99% 30.22 in 0.5 mi ESE 4.6 mph - N/A Snow Snow
1:20 AM 21.2 °F 13.6 °F 21.2 °F 100% 30.22 in 0.5 mi East 5.8 mph - N/A Snow Snow
1:45 AM 21.2 °F 11.7 °F 21.2 °F 100% 30.23 in 0.8 mi ESE 8.1 mph - N/A Snow Light Snow
1:55 AM 21.0 °F 10.6 °F 20.7 °F 99% 30.23 in 0.8 mi East 9.2 mph - 0.00 in Snow Light Snow
2:10 AM 21.2 °F 10.1 °F 21.2 °F 100% 30.23 in 1.0 mi East 10.4 mph - N/A Snow Light Snow
2:35 AM 21.2 °F 11.7 °F 21.2 °F 100% 30.23 in 1.0 mi East 8.1 mph - N/A Snow Light Snow
2:55 AM 20.8 °F 13.2 °F 20.5 °F 99% 30.23 in 1.0 mi East 5.8 mph - N/A Snow Light Snow
3:20 AM 21.2 °F 13.6 °F 21.2 °F 100% 30.23 in 1.2 mi East 5.8 mph - N/A Snow Light Snow
3:45 AM 21.2 °F 16.4 °F 21.2 °F 100% 30.22 in 0.8 mi East 3.5 mph - N/A Snow Light Snow
3:55 AM 20.8 °F 14.4 °F 20.5 °F 99% 30.22 in 1.0 mi East 4.6 mph - N/A Snow Light Snow
4:10 AM 21.2 °F 14.9 °F 21.2 °F 100% 30.22 in 0.5 mi East 4.6 mph - N/A Snow Snow
4:35 AM 21.2 °F 16.4 °F 21.2 °F 100% 30.22 in 1.2 mi East 3.5 mph - N/A Snow Light Snow
4:55 AM 21.9 °F 15.7 °F 21.9 °F 100% 30.21 in 2.0 mi East 4.6 mph - N/A Snow Light Snow
5:00 AM 23.0 °F 15.8 °F 23.0 °F 100% 30.21 in 1.8 mi ENE 5.8 mph - N/A Snow Light Snow
5:25 AM 32.0 °F 21.2 °F 28.4 °F 87% 30.20 in 3.0 mi SSW 16.1 mph 24.2 mph N/A Snow Light Snow
5:50 AM 32.0 °F 20.5 °F 28.4 °F 87% 30.19 in 1.2 mi SSW 18.4 mph 28.8 mph N/A Snow Light Snow
5:55 AM 31.6 °F 20.0 °F 28.9 °F 90% 30.19 in 1.5 mi SSW 18.4 mph 25.3 mph 0.03 in Snow Light Snow
6:20 AM 32.0 °F 21.6 °F 28.4 °F 87% 30.19 in 3.0 mi SSW 15.0 mph 24.2 mph N/A Snow Light Snow
6:45 AM 32.0 °F 20.8 °F 28.4 °F 87% 30.19 in 7.0 mi South 17.3 mph 27.6 mph N/A Snow Light Snow Showers
6:55 AM 32.2 °F 21.1 °F 28.9 °F 88% 30.19 in 5.0 mi South 17.3 mph 28.8 mph 0.04 in Rain Light Rain Showers
7:10 AM 32.0 °F 20.8 °F 28.4 °F 87% 30.18 in 3.0 mi SSW 17.3 mph 24.2 mph N/A Rain , Snow Light Rain Showers
7:35 AM 32.0 °F 21.6 °F 28.4 °F 87% 30.18 in 5.0 mi South 15.0 mph 23.0 mph N/A Snow Light Snow Showers
7:55 AM 32.4 °F 20.6 °F 29.5 °F 89% 30.18 in 3.0 mi South 19.6 mph 25.3 mph 0.05 in Rain , Snow Light Rain Showers
8:00 AM 32.0 °F 19.5 °F 30.2 °F 93% 30.18 in 2.5 mi South 21.9 mph 25.3 mph N/A Snow Light Snow Showers
8:25 AM 32.0 °F 19.5 °F 30.2 °F 93% 30.18 in 2.0 mi SSW 21.9 mph 31.1 mph N/A Snow Light Snow Showers
8:50 AM 32.0 °F 19.8 °F 30.2 °F 93% 30.17 in 1.8 mi SSW 20.7 mph 28.8 mph N/A Snow Light Snow
8:55 AM 32.4 °F 20.3 °F 29.5 °F 89% 30.18 in 1.8 mi SSW 20.7 mph 29.9 mph 0.00 in Snow Light Snow
9:20 AM 32.0 °F 19.8 °F 30.2 °F 93% 30.17 in 2.0 mi SSW 20.7 mph 28.8 mph N/A Snow Light Snow
9:45 AM 32.0 °F 20.5 °F 30.2 °F 93% 30.17 in 1.5 mi SSW 18.4 mph 25.3 mph N/A Snow Light Snow
9:55 AM 32.7 °F 20.1 °F 30.0 °F 90% 30.17 in 2.0 mi SSW 23.0 mph 31.1 mph N/A Snow Light Snow
10:50 AM 32.0 °F 19.5 °F 30.2 °F 93% 30.17 in 3.0 mi SSW 21.9 mph 27.6 mph N/A Snow Light Snow
10:55 AM 32.9 °F 20.7 °F 30.4 °F 90% 30.17 in 4.0 mi South 21.9 mph 27.6 mph 0.02 in Snow Light Snow
11:40 AM 32.0 °F 20.1 °F 30.2 °F 93% 30.17 in 3.0 mi SSW 19.6 mph 32.2 mph N/A Snow Light Snow Showers
11:55 AM 32.7 °F 21.1 °F 30.7 °F 92% 30.17 in 2.5 mi SSW 19.6 mph 28.8 mph 0.00 in Snow Light Snow Showers
12:05 PM 32.0 °F 20.8 °F 30.2 °F 93% 30.17 in 3.0 mi SSW 17.3 mph 31.1 mph N/A Snow Light Snow Showers
12:30 PM 33.8 °F 21.9 °F 32.0 °F 93% 30.17 in 2.0 mi SSW 21.9 mph 29.9 mph N/A Snow Light Snow
12:55 PM 32.9 °F 21.6 °F 31.1 °F 93% 30.17 in 4.0 mi SSW 18.4 mph 28.8 mph N/A Rain Light Rain
1:35 PM 33.8 °F 20.8 °F 32.0 °F 93% 30.17 in 3.0 mi SSW 26.5 mph 32.2 mph N/A Rain Light Rain Showers
1:55 PM 33.4 °F 21.1 °F 31.5 °F 92% 30.17 in 8.0 mi South 23.0 mph 31.1 mph N/A Rain Light Rain Showers
2:55 PM 34.0 °F 21.8 °F 31.5 °F 90% 30.17 in 10.0 mi SSW 23.0 mph 31.1 mph N/A Rain Light Rain
3:40 PM 33.8 °F 20.5 °F 32.0 °F 93% 30.16 in 10.0 mi South 27.6 mph 34.5 mph N/A Rain Light Rain
3:55 PM 34.0 °F 21.0 °F 31.6 °F 91% 30.16 in 10.0 mi SSW 26.5 mph 38.0 mph 0.00 in Rain Light Rain Showers
4:05 PM 33.8 °F 21.3 °F 32.0 °F 93% 30.16 in 9.0 mi South 24.2 mph 34.5 mph N/A Rain Light Rain Showers
4:55 PM 33.8 °F 19.9 °F 32.0 °F 93% 30.15 in 6.0 mi South 31.1 mph 35.7 mph N/A Rain Light Rain
5:55 PM 34.2 °F 21.0 °F 32.2 °F 92% 30.14 in 10.0 mi South 27.6 mph 36.8 mph N/A Rain Light Rain
6:50 PM 33.8 °F 20.5 °F 32.0 °F 93% 30.14 in 10.0 mi South 27.6 mph 40.3 mph N/A Rain Light Rain
6:55 PM 34.2 °F 20.6 °F 32.2 °F 92% 30.13 in 10.0 mi South 29.9 mph 38.0 mph N/A Rain Light Rain
7:55 PM 34.5 °F 22.5 °F 32.4 °F 92% 30.12 in 8.0 mi South 23.0 mph 38.0 mph N/A Rain Light Rain
8:15 PM 33.8 °F 20.3 °F 32.0 °F 93% 30.12 in 7.0 mi South 28.8 mph 38.0 mph N/A Rain Light Rain
8:40 PM 35.6 °F 21.9 °F 32.0 °F 87% 30.11 in 8.0 mi South 33.4 mph 39.1 mph N/A Rain Light Rain
8:55 PM 34.7 °F 19.9 °F 32.5 °F 92% 30.11 in 7.0 mi South 38.0 mph 41.4 mph N/A Rain Light Rain
9:55 PM 34.7 °F 20.3 °F 32.4 °F 91% 30.10 in 8.0 mi South 35.7 mph 42.6 mph N/A Rain Light Rain
10:55 PM 34.7 °F 20.3 °F 32.7 °F 92% 30.08 in 5.0 mi South 35.7 mph 44.9 mph N/A Rain Light Rain
11:05 PM 35.6 °F 21.5 °F 32.0 °F 87% 30.08 in 5.0 mi South 35.7 mph 43.7 mph N/A Rain Light Rain
11:30 PM 33.8 °F 19.0 °F 32.0 °F 93% 30.07 in 5.0 mi South 35.7 mph 42.6 mph N/A Rain Light Rain
11:55 PM 33.8 °F 18.8 °F 32.0 °F 93% 30.07 in 5.0 mi South 36.8 mph 43.7 mph N/A Rain Light Rain